Home   Weather   Honolulu   Past weeks

Flag for USA Past Weather in Honolulu, Hawaii, USA — Yesterday and Last 2 Weeks

Now
76 °F

Passing clouds.


Feels Like: 77 °F
Forecast: 73 / 83 °F
Wind: 8 mph from Northeast

Location: Honolulu International Airport

Current Time: Sep 25, 2016 at 4:06:20 AM

Latest Report: Sep 25, 2016 at 2:53 AM


Visibility: 10 mi

Pressure: 30.01 "Hg

Humidity: 77%

Dew Point: 68 °F

Location of HonoluluLocation

Past Weather in Honolulu — Graph

°F

Honolulu Temperature Yesterday

Maximum temperature yesterday: 88 °F (at 12:53 PM)
Minimum temperature yesterday: 77 °F (at 12:53 AM)
Average temperature yesterday: 81 °F

High & Low Weather Summary for the Past Weeks

 TemperatureHumidityPressure
High88 °F (Sep 11, 11:53 AM)100% (Sep 13, 10:35 PM)30.06 "Hg (Sep 13, 10:35 PM)
Low73 °F (Sep 13, 9:53 PM)45% (Sep 24, 12:53 PM)29.89 "Hg (Sep 10, 3:53 PM)
Average79 °F73%29.98 "Hg
* Reported Sep 10 2:53 AM — Sep 25 2:53 AM, Honolulu, Weather by CustomWeather, © 2016

Note: Actual official high and low records may vary slightly from our data, if they occured in-between our weather recording intervals... More about our weather records

Advertising

Honolulu Weather History for the Previous 24 Hours

Scroll right to see more
 ConditionsComfort  
Time TempWeatherWind HumidityBarometerVisibility
2:53 AM
Sun, Sep 25
76 °FPassing clouds.8 mph77%30.01 "Hg10 mi
1:53 AM76 °FPassing clouds.10 mph80%30.01 "Hg10 mi
12:53 AM77 °FPassing clouds.8 mph77%30.03 "Hg10 mi
11:53 PM
Sat, Sep 24
77 °FPassing clouds.8 mph74%30.04 "Hg10 mi
10:53 PM78 °FPassing clouds.15 mph71%30.06 "Hg10 mi
9:53 PM78 °FPassing clouds.10 mph74%30.06 "Hg10 mi
8:53 PM78 °FPassing clouds.12 mph71%30.05 "Hg10 mi
7:53 PM79 °FPassing clouds.10 mph69%30.03 "Hg10 mi
6:53 PM79 °FPassing clouds.8 mph69%30.01 "Hg10 mi
5:53 PM81 °FScattered clouds.15 mph62%29.98 "Hg10 mi
4:53 PM84 °FScattered clouds.14 mph57%29.96 "Hg10 mi
3:53 PM86 °FScattered clouds.12 mph53%29.95 "Hg10 mi
2:53 PM86 °FScattered clouds.16 mph51%29.95 "Hg10 mi
1:53 PM87 °FScattered clouds.13 mph51%29.96 "Hg10 mi
12:53 PM88 °FScattered clouds.15 mph45%29.98 "Hg10 mi
11:53 AM86 °FScattered clouds.12 mph51%29.99 "Hg10 mi
10:53 AM85 °FScattered clouds.13 mph57%30.01 "Hg10 mi
9:53 AM84 °FScattered clouds.8 mph57%30.02 "Hg10 mi
8:53 AM82 °FScattered clouds.13 mph65%30.02 "Hg10 mi
7:53 AM80 °FScattered clouds.10 mph69%30.01 "Hg10 mi
6:53 AM77 °FPassing clouds.7 mph77%29.99 "Hg10 mi
5:53 AM77 °FPassing clouds.12 mph77%29.98 "Hg10 mi
4:53 AM77 °FClear.10 mph79%29.97 "Hg10 mi
Weather by CustomWeather, © 2016

See weather overviewHow to use our weather pages